THOR AGENA B DEB, 1951

Orbit data source: Space-Track

THOR AGENA B DEB, 1951 is space debris in LEO originally from a launch on Mon, 29 Nov 1965 UTC launched from the Air Force Western Test Range (AFWTR). Debris objects in space refer to the collection of defunct objects orbiting the Earth. Examples of debris include non-operational satellites, rocket bodies, and fragments generated from explosions, collisions, or faulty payload assembly.

Loading next visibility...
Identifier
1951, 1965-098G
Orbit
LEO
Country
Flag of USUS
Related business
Manufacturer
Unknown
Mission
Spacecraft
Bus & Motor
Unknown
Mass
~1 kg wet, ~1 kg dry
Launch date (UTC)
1965-11-29 (60 years ago)
Launch vehicle
Unknown
Launch site
Air Force Western Test Range (AFWTR)
Object type
Payload
Rocket body
Debris
Shape & HBR
Half Cyl + Cone, 0.8 m
Radar Cross Section
0.531 m², Medium (>0.1 m² and < 1m²)

Expand to show TLE details & history
Last TLE update: 21 hours ago

TLE from 21 hours ago
0 THOR AGENA B DEB
1 01951U 65098G   25259.34662201  .00003567  00000-0  67259-3 0  9994
2 01951  79.6121 237.1281 0775254 216.1372 138.4945 13.55042113770496
Epoch: 2025-09-16T08:19Z
TLE epoch observation values (Epoch: 2025-09-16T08:19:08.141Z)
Latitude
-0.00002°
Longitude
116.80594°
Altitude
1,506.097 km
Speed
6.893 km/s
True Right ascension
15h 48m 30s
True Declination
0° 00' 00"
Sunlit
Object was in daylight at epoch
Visualization orbit readout
Latitude
Unknown
Longitude
Unknown
Altitude
Unknown
Speed
Unknown
Apparent Right ascension
Unknown
Apparent Declination
Unknown
Sunlit
N/A
Visualization observer readout
Local Sidereal Time
21:54:39
Azimuth
Unknown
Elevation
Unknown
Doppler factor
Unknown
Orbital elements
Apogee altitude
1,627.024 km
Perigee altitude
475.12 km
Semi-major axis
7,429.209 km
Eccentricity
0.07753
Inclination
79.6121°
RAAN
237.1281°
Arg. of periapsis
216.1372°
True anomaly
143.9741°
Mean anomaly
138.4945°
Eccentric anomaly
141.27336°
Mean motion
3.38945 °/min
Orbital period
106.21 mins
BSTAR
0.00067259
Loading maneuver chart data...
Computing Atmospheric mass density...
Loading historical data...
Loading historical data...
Loading historical data...
Loading historical data...
Loading historical data...
Loading historical data...
Loading historical data...

Documentation

Showing up to 5 results
|